User: anonymous   Login
Location: *
(35.8942°N, 23.3025°E)
Time: 08:14:50
(UTC+00:00)
Language:

ISS - Orbit

View from above orbital plane
View from above orbital plane
View from above satellite
View from above satellite

Ground track
Ground track

The orbit data is extracted from the following two-line orbital elements,

1 25544U 98067A   23038.08846098  .00012300  00000-0  22570-3 0  9994
2 25544  51.6425 252.9281 0008282 322.2597 174.7759 15.49651825381619
Epoch (UTC): 07 February 2023 02:07:23
Eccentricity: 0.0008282
inclination: 51.6425°
perigee height: 412 km
apogee height: 423 km
right ascension of ascending node: 252.9281°
argument of perigee: 322.2597°
revolutions per day: 15.49651825
mean anomaly at epoch: 174.7759°
orbit number at epoch: 38161

The dashed part of the orbit path shows where the satellite is in the earth's shadow,  

DLR